Powrót do katalogu

GOKTURK-1A

AktywnyMilitariaSSO
NORAD 41875·PAYLOAD·🇹🇷 Turkey

Wystrzelony Dec 5, 2016 z Guiana Space Centre

Loading…

Następne Przeloty (najbliższe 24 godziny)

TLE

ŚwieżeSource: Space-Track

Epoka: Sep 14, 2026, 23:47 UTC

1 41875U 16073A   26257.99160612  .00000188  00000-0  46176-4 0  9993
2 41875  98.1537 151.3693 0001546  77.1928 282.9447 14.62748977521951

Śledź GOKTURK-1A w czasie rzeczywistym z AllMySat

Download on the App Store